KG1ZR Weather Reports


time (UTC)temp
C
wind
direction
speed
KPH
gust
KPH
rain 1hr
cm
rain 24hr
cm
rain mn
cm
humidity
%
barometer
mb
20260508100904 3 274 3.2 6.4 0.00 0.00 0.00 78 1005.7
20260508095429 2 259 1.6 6.4 0.00 0.00 0.00 78 1005.5
20260508094428 2 241 1.6 8.0 0.00 0.00 0.00 78 1005.5
20260508093428 2 253 1.6 8.0 0.00 0.00 0.00 79 1005.2
20260508092429 2 276 1.6 6.4 0.00 0.00 0.00 79 1005.1
20260508091429 1 319 1.6 6.4 0.00 0.00 0.00 79 1005.0
20260508090611 1 244 0.0 6.4 0.00 0.00 0.00 78 1004.9
20260508084912 1 232 1.6 4.8 0.00 0.00 0.00 79 1004.8
20260508083428 1 249 1.6 4.8 0.00 0.00 0.00 79 1004.7
20260508082430 1 261 1.6 8.0 0.00 0.00 0.00 79 1004.5
20260508081428 1 331 1.6 8.0 0.00 0.03 0.00 79 1004.5
20260508080428 1 281 1.6 4.8 0.00 0.03 0.00 79 1004.5
20260508075428 1 255 0.0 3.2 0.00 0.03 0.00 79 1004.5
20260508074428 1 255 0.0 3.2 0.00 0.03 0.00 78 1004.5
20260508073428 1 255 0.0 3.2 0.00 0.03 0.00 78 1004.5
20260508072430 1 255 0.0 3.2 0.00 0.03 0.00 78 1004.7
20260508071429 1 255 0.0 1.6 0.00 0.03 0.00 77 1004.7
20260508070428 1 255 0.0 1.6 0.00 0.03 0.00 78 1004.8
20260508065430 1 255 0.0 1.6 0.00 0.03 0.00 79 1004.8
20260508064430 1 255 0.0 3.2 0.00 0.03 0.00 79 1004.9
20260508063428 1 255 0.0 3.2 0.00 0.03 0.00 79 1004.9
20260508062429 1 257 0.0 3.2 0.00 0.03 0.00 78 1005.1
20260508061908 1 290 0.0 3.2 0.00 0.03 0.00 77 1005.1
20260508060428 2 290 0.0 3.2 0.00 0.03 0.00 76 1005.3
20260508055429 2 302 0.0 1.6 0.00 0.03 0.00 73 1005.5
20260508054429 3 205 0.0 0.0 0.00 0.03 0.00 71 1005.6
20260508053429 3 205 0.0 3.2 0.00 0.03 0.00 71 1005.7
20260508052428 3 205 0.0 3.2 0.00 0.03 0.00 71 1005.8
20260508052357 3 205 1.6 4.8 0.00 0.03 0.00 70 1005.8
20260508050428 3 208 1.6 4.8 0.00 0.05 0.00 70 1005.7
20260508045429 3 207 1.6 4.8 0.00 0.05 0.00 68 1005.8
20260508044429 3 208 1.6 4.8 0.00 0.08 0.00 68 1005.9
20260508043913 4 251 1.6 6.4 0.00 0.13 0.00 66 1005.8
20260508042429 5 244 1.6 4.8 0.00 0.15 0.00 65 1005.8
20260508041429 5 294 0.0 3.2 0.00 0.15 0.00 63 1006.0
20260508040429 6 319 0.0 4.8 0.00 0.18 0.00 58 1006.1
20260508035509 6 342 1.6 11.3 0.00 0.23 0.18 58 1006.0
20260508034506 6 294 3.2 11.3 0.00 0.33 0.18 57 1006.1
20260508033501 6 307 3.2 14.5 0.00 0.33 0.18 57 1006.2
20260508032458 6 313 4.8 14.5 0.00 0.38 0.18 56 1006.3
20260508031958 7 321 4.8 14.5 0.00 0.41 0.18 55 1006.1
20260508030451 7 333 4.8 12.9 0.00 0.41 0.18 54 1005.9
20260508025447 7 323 3.2 12.9 0.00 0.41 0.18 54 1005.7
20260508024950 7 265 4.8 12.9 0.00 0.41 0.18 54 1005.5
20260508023951 7 302 3.2 11.3 0.00 0.43 0.18 54 1005.7
20260508022441 7 321 3.2 9.7 0.00 0.43 0.18 54 1005.6
20260508021938 7 312 3.2 14.5 0.00 0.46 0.18 54 1005.5
20260508020432 7 333 4.8 14.5 0.00 0.48 0.18 54 1005.5
20260508015429 7 316 4.8 19.3 0.00 0.48 0.18 54 1005.4
20260508014430 7 325 4.8 19.3 0.00 0.48 0.18 55 1005.4
20260508013429 6 300 1.6 6.4 0.00 0.51 0.18 57 1005.5
20260508012429 6 320 0.0 3.2 0.00 0.51 0.18 58 1005.4
20260508011429 7 15 0.0 0.0 0.00 0.51 0.18 57 1005.5
20260508010429 7 5 0.0 0.0 0.00 0.51 0.18 57 1005.5
20260508005429 7 5 0.0 0.0 0.00 0.51 0.18 57 1005.4
20260508004429 7 319 0.0 1.6 0.00 0.51 0.18 54 1005.2
20260508003909 8 319 0.0 1.6 0.00 0.51 0.18 54 1005.1
20260508002906 8 319 1.6 11.3 0.00 0.51 0.18 54 1004.8
20260508001906 9 319 1.6 11.3 0.00 0.51 0.18 53 1004.7
20260508000912 9 248 1.6 6.4 0.00 0.51 0.18 51 1004.5
20260507235428 10 299 3.2 6.4 0.00 0.51 0.18 50 1004.5
20260507234429 10 316 1.6 8.0 0.00 0.51 0.18 48 1004.4
20260507233430 11 338 1.6 6.4 0.00 0.51 0.18 48 1004.2
20260507232429 11 323 1.6 6.4 0.00 0.51 0.18 46 1004.1
20260507232355 12 294 3.2 16.1 0.00 0.51 0.18 44 1003.8
20260507230913 12 308 4.8 16.1 0.00 0.51 0.18 43 1003.5
20260507225915 13 294 6.4 27.4 0.00 0.51 0.18 41 1003.4
20260507224429 13 323 6.4 27.4 0.00 0.51 0.18 42 1003.2
20260507223430 13 296 6.4 25.7 0.00 0.51 0.18 43 1003.0
20260507222429 13 275 9.7 25.7 0.00 0.51 0.18 40 1003.0
20260507221429 13 277 6.4 22.5 0.00 0.53 0.18 42 1002.9
20260507220919 13 302 4.8 27.4 0.00 0.53 0.18 42 1002.9
20260507215429 14 335 8.0 27.4 0.00 0.56 0.18 42 1002.9
20260507214429 15 306 4.8 22.5 0.00 0.56 0.18 40 1002.8
20260507213429 15 325 6.4 19.3 0.00 0.58 0.18 41 1002.8
20260507212429 15 320 11.3 22.5 0.00 0.58 0.18 39 1002.7
20260507211429 15 299 8.0 22.5 0.00 0.61 0.18 39 1002.6
20260507210429 15 317 11.3 24.1 0.00 0.64 0.18 39 1002.4
20260507205429 15 274 8.0 20.9 0.00 0.66 0.18 41 1002.3
20260507204428 15 254 6.4 19.3 0.00 0.69 0.18 38 1002.0
20260507203429 15 293 6.4 14.5 0.00 0.71 0.18 43 1002.0
20260507202429 15 272 6.4 20.9 0.00 0.74 0.18 45 1002.0
20260507201429 15 250 8.0 20.9 0.00 0.74 0.18 40 1001.9
20260507200429 15 245 6.4 19.3 0.00 0.76 0.18 43 1001.8
20260507195430 15 248 9.7 22.5 0.00 0.79 0.18 41 1002.0
20260507194429 15 219 9.7 20.9 0.00 0.84 0.18 45 1002.1
20260507193911 15 288 8.0 22.5 0.00 0.86 0.18 46 1002.0
20260507192429 15 252 9.7 25.7 0.00 0.89 0.18 48 1002.0
20260507191428 15 275 9.7 25.7 0.00 0.91 0.18 55 1002.0
20260507190429 15 247 8.0 17.7 0.00 1.07 0.18 52 1002.1
20260507185429 14 20 6.4 16.1 0.00 1.12 0.18 57 1002.1
20260507184429 14 308 6.4 14.5 0.00 1.14 0.18 56 1002.2
20260507183431 15 355 6.4 19.3 0.00 1.17 0.18 56 1002.1
20260507182429 15 302 6.4 19.3 0.00 1.19 0.18 54 1002.1
20260507181429 16 326 6.4 20.9 0.00 1.19 0.18 58 1002.2
20260507180910 15 290 8.0 20.9 0.00 1.19 0.18 57 1002.4
20260507175429 15 342 8.0 20.9 0.00 1.19 0.18 53 1002.2
20260507174429 15 211 6.4 20.9 0.00 1.19 0.18 52 1002.4
20260507173429 15 296 6.4 17.7 0.00 1.19 0.18 55 1002.4
20260507172429 15 254 8.0 17.7 0.00 1.19 0.18 56 1002.5
20260507171912 14 254 8.0 16.1 0.00 1.19 0.18 57 1002.6
20260507170429 14 254 8.0 16.1 0.00 1.19 0.18 56 1002.8
20260507165429 14 288 6.4 19.3 0.00 1.19 0.18 60 1002.8
20260507164428 14 271 9.7 22.5 0.00 1.19 0.18 60 1002.9
20260507163428 14 246 6.4 16.1 0.00 1.19 0.18 58 1003.0
20260507162429 14 317 6.4 16.1 0.00 1.19 0.18 58 1003.1
20260507161429 14 259 4.8 12.9 0.00 1.19 0.18 59 1003.2
20260507160903 14 213 4.8 11.3 0.00 1.19 0.18 56 1003.2
20260507155429 14 187 6.4 14.5 0.00 1.19 0.18 55 1003.5
20260507154429 14 325 6.4 14.5 0.00 1.19 0.18 55 1003.5
20260507153428 14 333 4.8 12.9 0.00 1.19 0.18 64 1003.5
20260507152429 13 221 6.4 14.5 0.00 1.19 0.18 62 1003.6
20260507151429 13 180 4.8 11.3 0.00 1.19 0.18 65 1003.7
20260507150429 13 249 4.8 16.1 0.00 1.19 0.18 66 1003.8
20260507145428 13 207 4.8 9.7 0.00 1.19 0.18 65 1003.8
20260507144429 13 300 4.8 14.5 0.00 1.19 0.18 71 1003.9
20260507143429 13 180 4.8 14.5 0.00 1.19 0.18 66 1004.0
20260507142430 13 296 3.2 12.9 0.00 1.19 0.18 72 1004.2
20260507141429 12 238 4.8 12.9 0.00 1.19 0.18 69 1004.2
20260507140428 13 281 3.2 12.9 0.00 1.19 0.18 71 1004.3
20260507135905 12 292 3.2 12.9 0.00 1.19 0.18 72 1004.4
20260507134429 11 5 4.8 12.9 0.00 1.19 0.18 72 1004.5
20260507133915 11 304 3.2 11.3 0.00 1.19 0.18 75 1004.3
20260507132428 11 279 4.8 11.3 0.00 1.19 0.18 75 1004.5
20260507131910 11 244 4.8 11.3 0.00 1.19 0.18 74 1004.4
20260507130429 11 349 3.2 12.9 0.00 1.19 0.18 77 1004.5
20260507125429 10 302 4.8 12.9 0.00 1.19 0.18 78 1004.7
20260507124429 10 290 4.8 14.5 0.00 1.19 0.18 78 1004.8
20260507123914 10 325 6.4 14.5 0.00 1.19 0.18 78 1004.7
20260507122428 9 269 4.8 14.5 0.00 1.19 0.18 76 1004.8
20260507121429 9 274 3.2 8.0 0.00 1.19 0.18 73 1004.7
20260507120429 9 310 3.2 8.0 0.00 1.19 0.18 70 1004.7
20260507115429 8 315 3.2 8.0 0.00 1.19 0.18 68 1004.9
20260507114428 8 285 3.2 8.0 0.00 1.19 0.18 64 1005.1
20260507113429 8 215 0.0 6.4 0.00 1.19 0.18 60 1005.0
20260507112429 8 309 1.6 6.4 0.00 1.19 0.18 60 1004.9
20260507111429 7 194 1.6 6.4 0.00 1.19 0.18 60 1005.2
20260507110429 7 249 0.0 3.2 0.00 1.19 0.18 60 1005.2
20260507105429 7 217 1.6 4.8 0.00 1.19 0.18 60 1005.0
20260507104429 7 279 1.6 4.8 0.00 1.19 0.18 60 1004.9
20260507103429 6 225 0.0 4.8 0.00 1.19 0.18 61 1005.1
20260507102428 6 225 1.6 4.8 0.00 1.19 0.18 61 1005.1
20260507101429 6 325 0.0 0.0 0.00 1.19 0.18 61 1005.1